{"data":{"norad_id":53267,"intl_designator":"2022-086AB","name":"STARLINK-4060","alt_names":[],"object_type":"PAYLOAD","status":"ACTIVE","operator":null,"country":"US","launch_date":"2022-07-24","launch_site_code":"AFETR","launch_vehicle":null,"mission":null,"orbit_class":"UNKNOWN","rcs_meters":null,"size_class":null,"mass_kg":null,"dimensions":null,"purposes":["comms"],"wikipedia_slug":null,"has_3d_model":false,"image_url":null,"decayed_at":null,"tle_current":{"epoch":"2026-09-20T01:16:13.664352Z","epoch_age_seconds":114037,"freshness":"FRESH","line1":"1 53267U 22086AB  26263.05293593  .00003052  00000+0  10140-3 0  9994","line2":"2 53267  53.1605  27.4741 0001114  71.4728 288.6396 15.34408254230605","mean_motion":15.34408254,"eccentricity":0.0001114,"inclination_deg":53.1605,"raan_deg":27.4741,"arg_perigee_deg":71.4728,"mean_anomaly_deg":288.6396,"bstar":0.0001014,"rev_number":23060,"period_min":93.847253248678,"perigee_km":461.91664081979,"apogee_km":463.44077455946,"semimajor_km":6840.8157076896,"source":"CELESTRAK","updated_at":"2026-09-20T09:00:40.217487Z"}}}